Ellensburg, WA

12:29 PM PST on January 19, 2018 (GMT -0800)
Bowers

Weather History for KELN - October, 2012

Change the Weather History Date:

Wednesday, October 10, 2012

  Actual Average (KYKM) Record (KYKM)
Temperature  
Mean Temperature 58 °F -  
Max Temperature 80 °F 67 °F 81 °F (1988)
Min Temperature 37 °F 38 °F 24 °F (2009)
Degree Days  
Heating Degree Days 6    
Growing Degree Days 8 (Base 50)    
Moisture  
Dew Point 35 °F    
Average Humidity 44    
Maximum Humidity 79    
Minimum Humidity 19    
Precipitation  
Precipitation 0.00 in - - ()
Sea Level Pressure  
Sea Level Pressure 29.89 in    
Wind  
Wind Speed 7 mph (NW)    
Max Wind Speed 22 mph    
Max Gust Speed 28 mph    
Visibility 8 miles    
Events      
Averages and records for this station are not official NWS values.
T = Trace of Precipitation, MM = Missing Value Source: NWS Daily Summary

Daily Weather History Graph

Daily Weather History Graph

Search for Another Location

Airport or City:

Trip Planner

Search our weather history database for the weather conditions in past years. The results will help you decide how hot, cold, wet, or windy it might be!

Date:

Astronomy

Oct. 10, 2012 Rise Set
Actual Time 7:14 AM PDT 6:23 PM PDT
Civil Twilight 6:43 AM PDT 6:53 PM PDT
Nautical Twilight 6:08 AM PDT 7:28 PM PDT
Astronomical Twilight 5:32 AM PDT 8:04 PM PDT
Moon 1:36 AM PDT (10/10) 3:45 PM PDT (10/10)
Length of Visible Light 12h 10m
Length of Day
11h 08m
Waning Crescent, 26% of the Moon is Illuminated
Oct 10
Waning Crescent
Oct 15
New
Oct 21
First Quarter
Oct 29
Full
Nov 6
Last Quarter

Hourly Weather History & Observations

Time (PDT) Temp. Windchill Dew Point Humidity Pressure Visibility Wind Dir Wind Speed Gust Speed Precip Events Conditions
12:53 AM 48.9 °F - 35.1 °F 59% 29.97 in 8.0 mi Calm Calm - N/A   Clear
1:53 AM 43.0 °F 41.3 °F 34.0 °F 71% 29.98 in 10.0 mi NE 3.5 mph - N/A   Clear
2:53 AM 42.1 °F - 33.1 °F 70% 29.97 in 10.0 mi Calm Calm - N/A   Clear
3:53 AM 39.9 °F 37.8 °F 32.0 °F 73% 29.96 in 9.0 mi ENE 3.5 mph - N/A   Clear
4:53 AM 39.0 °F - 30.9 °F 73% 29.96 in 10.0 mi Calm Calm - N/A   Clear
5:53 AM 37.9 °F 34.4 °F 30.9 °F 76% 29.96 in 10.0 mi NNW 4.6 mph - N/A   Clear
6:53 AM 37.0 °F - 30.9 °F 79% 29.97 in 9.0 mi Calm Calm - N/A   Clear
7:53 AM 41.0 °F - 34.0 °F 76% 29.97 in 10.0 mi Calm Calm - N/A   Clear
8:53 AM 48.9 °F - 37.0 °F 64% 29.96 in 10.0 mi Calm Calm - N/A   Clear
9:53 AM 54.0 °F - 39.0 °F 57% 29.95 in 10.0 mi Calm Calm - N/A   Clear
10:53 AM 59.0 °F - 41.0 °F 51% 29.93 in 10.0 mi Variable 4.6 mph - N/A   Clear
11:53 AM 66.0 °F - 41.0 °F 40% 29.91 in 10.0 mi SSE 3.5 mph - N/A   Clear
12:53 PM 73.9 °F - 41.0 °F 30% 29.87 in 10.0 mi Variable 4.6 mph - N/A   Clear
1:48 PM 78.8 °F - 37.4 °F 23% 29.85 in 1.8 mi WNW 13.8 mph 19.6 mph N/A   Haze
1:53 PM 80.1 °F - 35.1 °F 20% 29.83 in 1.8 mi NW 18.4 mph 24.2 mph N/A   Haze
2:02 PM 78.8 °F - 35.6 °F 21% 29.85 in 10.0 mi NW 18.4 mph - N/A   Clear
2:53 PM 79.0 °F - 34.0 °F 20% 29.82 in 10.0 mi NW 19.6 mph 24.2 mph N/A   Clear
3:53 PM 78.1 °F - 32.0 °F 19% 29.81 in 10.0 mi NW 21.9 mph 27.6 mph N/A   Clear
4:53 PM 75.0 °F - 34.0 °F 22% 29.82 in 1.8 mi NW 17.3 mph - N/A   Haze
4:59 PM 75.2 °F - 33.8 °F 22% 29.83 in 4.0 mi NW 19.6 mph 25.3 mph N/A   Haze
5:09 PM 73.4 °F - 33.8 °F 23% 29.83 in 1.5 mi NW 17.3 mph 24.2 mph N/A   Haze
5:25 PM 73.4 °F - 33.8 °F 23% 29.83 in 10.0 mi NW 17.3 mph - N/A   Clear
5:53 PM 71.1 °F - 34.0 °F 26% 29.83 in 2.5 mi NNW 20.7 mph - N/A   Haze
6:01 PM 69.8 °F - 33.8 °F 27% 29.83 in 1.5 mi NW 19.6 mph - N/A   Haze
6:06 PM 69.8 °F - 33.8 °F 27% 29.83 in 3.0 mi NW 18.4 mph - N/A   Haze
6:53 PM 66.0 °F - 33.1 °F 29% 29.85 in 10.0 mi NNW 16.1 mph - N/A   Clear
7:53 PM 61.0 °F - 35.1 °F 38% 29.86 in 10.0 mi NW 13.8 mph - N/A   Clear
8:53 PM 60.1 °F - 37.0 °F 42% 29.86 in 10.0 mi NW 13.8 mph - N/A   Clear
9:53 PM 57.0 °F - 37.0 °F 47% 29.88 in 10.0 mi WNW 6.9 mph - N/A   Clear
10:53 PM 53.1 °F - 34.0 °F 48% 29.90 in 9.0 mi North 3.5 mph - N/A   Clear
11:53 PM 48.0 °F - 34.0 °F 58% 29.91 in 10.0 mi Calm Calm - N/A   Clear